Regional Weather Roundup
Issued by NWS

Home | Current Version | Previous Version | Graphics & Text | Print | Product List | Glossary On
Versions: 1 2 3 4 5 6 7 8 9 10 11 12 13 14 15 16 17 18 19 20 21 22 23 24 25 26 27 28 29 30 31 32 33 34 35 36 37 38 39 40 41 42 43 44 45 46 47 48 49 50
000
ASUS43 KLOT 060800
RWRIL

ILLINOIS REGIONAL WEATHER ROUNDUP
NATIONAL WEATHER SERVICE CHICAGO/ROMEOVILLE IL
300 AM CDT WED MAY 06 2015

NOTE: "FAIR" INDICATES FEW OR NO CLOUDS BELOW 12,000 FEET WITH NO
SIGNIFICANT WEATHER AND/OR OBSTRUCTIONS TO VISIBILITY.

* THESE STATIONS ARE NOT UNDER NWS QUALITY CONTROL. THEY ALSO MAY NOT
  REPORT WEATHER SUCH AS PRECIPITATION OR FOG.

ILZ001-002-007-009-015-016-024-060900-
NORTHWEST ILLINOIS

CITY           SKY/WX    TMP DP  RH WIND       PRES   REMARKS
MOLINE         CLOUDY    56  53  90 E12       30.12F FOG
STERLING*      CLOUDY    54  52  94 E12       30.15F VSB 3/4
$$

ILZ003-004-008-010-011-017-018-060900-
NORTH CENTRAL ILLINOIS

CITY           SKY/WX    TMP DP  RH WIND       PRES   REMARKS
ROCKFORD       FOG       51  49  92 E8        30.20F VSB 1/2
$$

ILZ005-006-012>014-019>023-060900-
NORTHEAST ILLINOIS

CITY           SKY/WX    TMP DP  RH WIND       PRES   REMARKS
CHICAGO-OHARE  FOG       46  46 100 N7        30.19S VSB 1/2
CHICAGO-MIDWAY CLOUDY    52  49  89 N6        30.18F FOG
AURORA         FOG       51  48  89 NE8       30.18F VSB 1/2
WAUKEGAN       CLOUDY    46  43  89 NE3       30.20F
DUPAGE AIRPORT FOG       49  48  97 NE5       30.18F VSB 1/2
WHEELING       CLOUDY    45  45 100 NE3       30.22S FOG
NORTHERLY ISL    N/A     47  46  97 N5          N/A
$$

LMZ740>746-060900-
SOUTHERN LAKE MICHIGAN

STATION/POSITION SKY/WX   TEMP    WIND        PRES    VSBY  WAVE
                          AIR SEA DIR/SP/G                  HT/PER
                          (F)     (DEG/KT/KT) (MB)    (MI)  (FT/S)
HARRISON CRIB              44      10/  6/  7   N/A
BURNHAM HARBOR             47     350/  3/  8   N/A
CALUMET HARBOR             45     340/  4/  6   N/A
BURNS HARBOR               52      50/  3/  4 1022.4F
MICHIGAN CITY              56      90/  3/  5   N/A
MICHIGAN CITY 6N           53 50   90/  4/  4   N/A           1/ 3
ST. JOSEPH                 53 49  130/  6/  8   N/A           1
$$

ILZ025>027-034>036-040-047-049-050-058-095>099-060900-
WEST-CENTRAL ILLINOIS

CITY           SKY/WX    TMP DP  RH WIND       PRES   REMARKS
QUINCY         PTCLDY    66  56  70 SE7       30.08F
$$

ILZ028>032-037-038-041>044-048-051>054-059>061-060900-
CENTRAL ILLINOIS

CITY           SKY/WX    TMP DP  RH WIND       PRES   REMARKS
DECATUR        MOCLDY    59  52  77 NE5       30.14S
PEORIA         MOCLDY    62  58  86 NE7       30.12F FOG
SPRINGFIELD    MOCLDY    68  56  65 S8        30.11F
TAYLORVILLE    NOT AVBL
$$

ILZ033-039-045-046-055>057-062-063-060900-
EAST-CENTRAL ILLINOIS

CITY           SKY/WX    TMP DP  RH WIND       PRES   REMARKS
CHAMPAIGN      CLOUDY    61  57  87 E5        30.15S
MATTOON        CLEAR     64  54  69 CALM      30.14S
$$

ILZ079-100>102-060900-
SOUTHWEST ILLINOIS

CITY           SKY/WX    TMP DP  RH WIND       PRES   REMARKS
CAHOKIA*       CLEAR     62  56  80 CALM      30.11F
$$

ILZ064>066-069>071-074>076-080>082-084>086-088>090-092>094-060900-
SOUTH-CENTRAL ILLINOIS

CITY           SKY/WX    TMP DP  RH WIND       PRES   REMARKS
CARBONDALE     CLEAR     61  56  83 CALM      30.13F
MT. VERNON     CLEAR    N/A N/A N/A CALM      30.14F
$$

ILZ067-068-072-073-078-083-087-091-060900-
SOUTHEAST ILLINOIS

CITY           SKY/WX    TMP DP  RH WIND       PRES   REMARKS
LAWRENCEVILLE  CLEAR     59  53  80 SE3       30.16F
$$

ABBREVIATIONS USED IN REMARKS
   TC - TEMPERATURE IN CELSIUS
  WCI - WIND CHILL INDEX
   HX - HEAT INDEX
  VSB - VISIBILITY
$$



USA.gov is the U.S. government's official web portal to all federal, state and local government web resources and services.